Regional Weather Roundup
Issued by NWS

Home | Current Version | Previous Version | Graphics & Text | Print | Product List | Glossary On
Versions: 1 2 3 4 5 6 7 8 9 10 11 12 13 14 15 16 17 18 19 20 21 22 23 24 25 26 27 28 29 30 31 32 33 34 35 36 37 38 39 40 41 42 43 44 45 46 47 48 49 50
000
ASUS43 KLSX 310159
RWRMO

WEATHER SUMMARY FOR MISSOURI
NATIONAL WEATHER SERVICE SPRINGFIELD MO
800 PM CST FRI JAN 30 2015

NOTE: "FAIR" INDICATES FEW OR NO CLOUDS BELOW 12,000 FEET WITH NO
       SIGNIFICANT WEATHER AND/OR OBSTRUCTIONS TO VISIBILITY.
       CURRENT SKY AND/OR WEATHER CONDITIONS ARE NOT AVAILABLE FOR
       CHILLICOTHE AND FARMINGTON.

MOZ001>031-035>038-043-044-053-054-310300-
...NORTHERN AND WESTERN MISSOURI...

CITY           SKY/WX    TMP DP  RH WIND       PRES   REMARKS
KANSAS CTY INT CLOUDY    31  20  63 S5        30.36F WCI  26
KANSAS C DTWN  CLOUDY    38  22  52 S3        30.37F
LEE`S SUMMIT   CLOUDY    36  18  48 S7        30.38S
ST JOSEPH      MOCLDY    26  18  71 CALM      30.38S
CHILLICOTHE      N/A     28  22  78 CALM      30.41F
KIRKSVILLE     PTCLDY    25  18  74 S7        30.38F WCI  17

$$
MOZ066>068-077>081-088>096-101>105-310300-
...SOUTHWEST MISSOURI...

CITY           SKY/WX    TMP DP  RH WIND       PRES   REMARKS
SPRINGFIELD    CLOUDY    36  21  54 CALM      30.38F
JOPLIN         CLOUDY    41  24  51 E3        30.39F

$$
MOZ032>034-039>042-045>050-055>058-069>072-310300-
...CENTRAL MISSOURI...

CITY           SKY/WX    TMP DP  RH WIND       PRES   REMARKS
COLUMBIA       MOCLDY    31  17  56 E6        30.41F WCI  25
JEFFERSON CITY MOCLDY    29  18  63 CALM      30.42F
ROLLA          MOCLDY    29  20  69 CALM      30.38F
SEDALIA        CLOUDY    32  20  61 E5        30.40F WCI  27
OSAGE BEACH    CLOUDY    34  14  44 CALM      30.40F

$$
MOZ051-052-059>065-310300-
...EAST CENTRAL MISSOURI...

CITY           SKY/WX    TMP DP  RH WIND       PRES   REMARKS
ST LOUIS INTL  PTCLDY    33  19  56 CALM      30.45F
SPIRIT OF STL  CLEAR     25  19  78 CALM      30.44F
ST CHARLES     CLEAR     28  22  78 E3        30.45F

$$
MOZ072>076-082>087-097>100-106>115-310300-
...SOUTH CENTRAL AND SOUTHEAST MISSOURI...

CITY           SKY/WX    TMP DP  RH WIND       PRES   REMARKS
CAPE GIRARDEAU MOCLDY    33  23  66 E5        30.46S WCI  29
FARMINGTON     MOCLDY    30  19  64 E6        30.45F WCI  24
POPLAR BLUFF   PTCLDY    34  26  72 CALM      30.45S
WEST PLAINS    MOCLDY    36  15  42 CALM      30.41S

$$



USA.gov is the U.S. government's official web portal to all federal, state and local government web resources and services.